TimeCST,TemperatureF,Dew PointF,Humidity,Sea Level PressureIn,VisibilityMPH,Wind Direction,Wind SpeedMPH,Gust SpeedMPH,PrecipitationIn,Events,Conditions,WindDirDegrees,DateUTC
12:15 AM,21.2,12.2,68,29.97,10.0,SSE,3.5,-,N/A,,Clear,160,2012-12-11 06:15:00
12:35 AM,21.2,12.2,68,29.97,10.0,South,3.5,-,N/A,,Clear,180,2012-12-11 06:35:00
12:55 AM,21.2,12.2,68,29.96,10.0,South,3.5,-,N/A,,Clear,180,2012-12-11 06:55:00
1:15 AM,21.2,12.2,68,29.95,10.0,South,3.5,-,N/A,,Clear,180,2012-12-11 07:15:00
1:35 AM,21.2,12.2,68,29.95,10.0,Calm,Calm,-,N/A,,Clear,0,2012-12-11 07:35:00
1:55 AM,21.2,12.2,68,29.95,10.0,Calm,Calm,-,N/A,,Clear,0,2012-12-11 07:55:00
2:15 AM,21.2,12.2,68,29.94,10.0,Calm,Calm,-,N/A,,Clear,0,2012-12-11 08:15:00
2:35 AM,15.8,8.6,73,29.95,10.0,West,3.5,-,N/A,,Clear,260,2012-12-11 08:35:00
2:55 AM,17.6,10.4,73,29.95,10.0,WSW,4.6,-,N/A,,Clear,240,2012-12-11 08:55:00
3:15 AM,17.6,10.4,73,29.94,10.0,WSW,3.5,-,N/A,,Clear,250,2012-12-11 09:15:00
3:35 AM,17.6,10.4,73,29.94,10.0,Calm,Calm,-,N/A,,Clear,0,2012-12-11 09:35:00
3:55 AM,17.6,10.4,73,29.93,10.0,Calm,Calm,-,N/A,,Clear,0,2012-12-11 09:55:00
4:15 AM,15.8,10.4,79,29.95,10.0,NNW,4.6,-,N/A,,Clear,340,2012-12-11 10:15:00
4:35 AM,17.6,10.4,73,29.95,10.0,NNW,4.6,-,N/A,,Clear,340,2012-12-11 10:35:00
4:55 AM,15.8,10.4,79,29.95,10.0,WNW,3.5,-,N/A,,Clear,300,2012-12-11 10:55:00
5:15 AM,15.8,10.4,79,29.95,10.0,Calm,Calm,-,N/A,,Clear,0,2012-12-11 11:15:00
5:35 AM,15.8,8.6,73,29.95,10.0,NW,3.5,-,N/A,,Clear,310,2012-12-11 11:35:00
5:55 AM,15.8,10.4,79,29.95,10.0,NW,4.6,-,N/A,,Clear,310,2012-12-11 11:55:00
6:15 AM,15.8,10.4,79,29.97,10.0,NNW,5.8,-,N/A,,Clear,330,2012-12-11 12:15:00
6:35 AM,17.6,12.2,79,29.98,10.0,NNW,5.8,-,N/A,,Clear,340,2012-12-11 12:35:00
6:55 AM,19.4,14.0,80,29.98,10.0,NNW,4.6,-,N/A,,Clear,340,2012-12-11 12:55:00
7:15 AM,15.8,10.4,79,29.99,10.0,North,3.5,-,N/A,,Clear,360,2012-12-11 13:15:00
7:35 AM,17.6,12.2,79,29.99,10.0,North,3.5,-,N/A,,Clear,360,2012-12-11 13:35:00
7:55 AM,15.8,10.4,79,29.99,10.0,Calm,Calm,-,N/A,,Clear,0,2012-12-11 13:55:00
8:15 AM,17.6,12.2,79,30.00,10.0,NW,4.6,-,N/A,,Clear,320,2012-12-11 14:15:00
8:35 AM,21.2,14.0,74,30.01,10.0,NW,3.5,-,N/A,,Clear,320,2012-12-11 14:35:00
8:55 AM,23.0,17.6,80,30.01,10.0,NNW,4.6,-,N/A,,Clear,340,2012-12-11 14:55:00
9:15 AM,30.2,19.4,64,30.02,10.0,North,8.1,-,N/A,,Clear,350,2012-12-11 15:15:00
9:35 AM,30.2,19.4,64,30.04,10.0,North,10.4,-,N/A,,Clear,350,2012-12-11 15:35:00
9:55 AM,32.0,19.4,60,30.05,10.0,North,9.2,-,N/A,,Clear,360,2012-12-11 15:55:00
10:15 AM,33.8,19.4,56,30.06,10.0,North,9.2,-,N/A,,Clear,350,2012-12-11 16:15:00
10:35 AM,35.6,19.4,52,30.06,10.0,NNE,8.1,-,N/A,,Clear,20,2012-12-11 16:35:00
10:55 AM,37.4,19.4,48,30.06,10.0,NNE,8.1,-,N/A,,Clear,30,2012-12-11 16:55:00
11:15 AM,39.2,19.4,45,30.06,10.0,North,6.9,-,N/A,,Clear,10,2012-12-11 17:15:00
11:35 AM,39.2,17.6,42,30.06,10.0,ENE,6.9,-,N/A,,Clear,60,2012-12-11 17:35:00
11:55 AM,41.0,17.6,39,30.05,10.0,NNE,3.5,-,N/A,,Clear,30,2012-12-11 17:55:00
12:15 PM,41.0,15.8,36,30.05,10.0,NNE,4.6,-,N/A,,Clear,30,2012-12-11 18:15:00
12:35 PM,42.8,14.0,31,30.04,10.0,NNE,3.5,-,N/A,,Clear,20,2012-12-11 18:35:00
12:55 PM,42.8,12.2,29,30.03,10.0,North,4.6,-,N/A,,Clear,10,2012-12-11 18:55:00
1:15 PM,42.8,8.6,25,30.02,10.0,Calm,Calm,-,N/A,,Clear,0,2012-12-11 19:15:00
1:35 PM,46.4,6.8,20,30.01,10.0,East,3.5,-,N/A,,Clear,100,2012-12-11 19:35:00
1:55 PM,46.4,6.8,20,30.01,10.0,NNE,3.5,-,N/A,,Clear,20,2012-12-11 19:55:00
2:15 PM,46.4,8.6,22,30.01,10.0,Calm,Calm,-,N/A,,Clear,0,2012-12-11 20:15:00
2:35 PM,46.4,8.6,22,30.01,10.0,NNE,4.6,-,N/A,,Clear,20,2012-12-11 20:35:00
2:55 PM,46.4,8.6,22,30.01,10.0,East,3.5,-,N/A,,Clear,80,2012-12-11 20:55:00
3:15 PM,46.4,6.8,20,30.01,10.0,East,3.5,-,N/A,,Clear,80,2012-12-11 21:15:00
3:35 PM,48.2,8.6,20,30.02,10.0,Calm,Calm,-,N/A,,Clear,0,2012-12-11 21:35:00
3:55 PM,46.4,6.8,20,30.02,10.0,ESE,3.5,-,N/A,,Clear,120,2012-12-11 21:55:00
4:15 PM,46.4,6.8,20,30.02,10.0,South,4.6,-,N/A,,Clear,180,2012-12-11 22:15:00
4:35 PM,46.4,8.6,22,30.01,10.0,SSE,3.5,-,N/A,,Clear,150,2012-12-11 22:35:00
4:55 PM,46.4,8.6,22,30.01,10.0,SSE,4.6,-,N/A,,Clear,160,2012-12-11 22:55:00
5:15 PM,42.8,8.6,25,30.02,10.0,SSE,3.5,-,N/A,,Clear,150,2012-12-11 23:15:00
5:35 PM,41.0,8.6,26,30.03,10.0,Calm,Calm,-,N/A,,Clear,0,2012-12-11 23:35:00
5:55 PM,41.0,8.6,26,30.04,10.0,SSE,3.5,-,N/A,,Clear,160,2012-12-11 23:55:00
6:15 PM,41.0,8.6,26,30.04,10.0,Calm,Calm,-,N/A,,Clear,0,2012-12-12 00:15:00
6:35 PM,35.6,8.6,33,30.04,10.0,Calm,Calm,-,N/A,,Clear,0,2012-12-12 00:35:00
6:55 PM,35.6,8.6,33,30.05,5.0,Calm,Calm,-,N/A,,Haze,0,2012-12-12 00:55:00
7:15 PM,35.6,8.6,33,30.06,10.0,Calm,Calm,-,N/A,,Clear,0,2012-12-12 01:15:00
7:35 PM,35.6,8.6,33,30.07,10.0,SE,6.9,-,N/A,,Clear,130,2012-12-12 01:35:00
7:55 PM,33.8,12.2,41,30.08,10.0,SSE,8.1,-,N/A,,Clear,160,2012-12-12 01:55:00
8:15 PM,30.2,10.4,44,30.09,10.0,South,5.8,-,N/A,,Clear,180,2012-12-12 02:15:00
8:35 PM,30.2,12.2,47,30.09,10.0,South,5.8,-,N/A,,Clear,190,2012-12-12 02:35:00
8:55 PM,33.8,14.0,44,30.09,10.0,South,6.9,-,N/A,,Clear,180,2012-12-12 02:55:00
9:15 PM,32.0,12.2,44,30.10,10.0,South,6.9,-,N/A,,Clear,190,2012-12-12 03:15:00
9:35 PM,30.2,12.2,47,30.10,10.0,SSW,6.9,-,N/A,,Clear,200,2012-12-12 03:35:00
9:55 PM,30.2,14.0,51,30.10,10.0,SSW,5.8,-,N/A,,Clear,210,2012-12-12 03:55:00
10:15 PM,30.2,14.0,51,30.10,10.0,SSW,5.8,-,N/A,,Clear,200,2012-12-12 04:15:00
10:35 PM,30.2,14.0,51,30.09,10.0,SSW,6.9,-,N/A,,Clear,200,2012-12-12 04:35:00
10:55 PM,30.2,14.0,51,30.09,10.0,SSW,6.9,-,N/A,,Clear,200,2012-12-12 04:55:00
11:15 PM,28.4,12.2,51,30.09,10.0,South,5.8,-,N/A,,Clear,190,2012-12-12 05:15:00
11:35 PM,28.4,12.2,51,30.09,10.0,SSW,8.1,-,N/A,,Clear,200,2012-12-12 05:35:00
11:55 PM,28.4,14.0,55,30.09,10.0,South,6.9,-,N/A,,Clear,190,2012-12-12 05:55:00